{"data":{"norad_id":26407,"epoch":"2026-09-19T20:05:18.972960Z","epoch_age_seconds":68542,"freshness":"FRESH","line1":"1 26407U 00040A   26262.83702515  .00000003  00000+0  00000+0 0  9993","line2":"2 26407  54.8377 211.4058 0117953 303.9320 280.2100  2.00558455191842","mean_motion":2.00558455,"eccentricity":0.0117953,"inclination_deg":54.8377,"raan_deg":211.4058,"arg_perigee_deg":303.932,"mean_anomaly_deg":280.21,"bstar":0,"rev_number":19184,"period_min":717.99516006443,"perigee_km":19869.372777681,"apogee_km":20495.958043022,"semimajor_km":26560.802410351,"source":"CELESTRAK","updated_at":"2026-09-20T09:00:46.083868Z"}}